Regional Weather Roundup
Issued by NWS Sioux Falls, SD

Home | Current Version | Previous Version | Graphics & Text | Print | Product List | Glossary Off
Versions: 1 2 3 4 5 6 7 8 9 10 11 12 13 14 15 16 17 18 19 20 21 22 23 24 25 26 27 28 29 30 31 32 33 34 35 36 37 38 39 40 41 42 43 44 45 46 47 48 49 50

000
ASUS43 KFSD 240610
RWRFSD

WEATHER ROUNDUP FOR SE SOUTH DAKOTA/SW MINNESOTA/NW IOWA
NATIONAL WEATHER SERVICE SIOUX FALLS SD
100 AM CDT TUE MAY 24 2016

NOTE: "FAIR" INDICATES FEW OR NO CLOUDS BELOW 12,000 FEET WITH NO
SIGNIFICANT WEATHER AND OR OBSTRUCTIONS TO VISIBILITY.


SDZ038>040-050-052>070-240700-
SOUTHEAST SOUTH DAKOTA

CITY           SKY/WX    TMP DP  RH WIND       PRES   REMARKS
BROOKINGS      CLOUDY    62  60  93 S9        29.78R
CHAMBERLAIN    CLOUDY    60  55  83 CALM      29.76S
6HR MIN TEMP:  60; 6HR MAX TEMP:  78;

HURON          CLEAR     62  58  86 S8        29.74R
6HR MIN TEMP:  62; 6HR MAX TEMP:  76;

MADISON        FAIR      63  63 100 S8        29.79R
MITCHELL       CLEAR     64  61  90 SE8       29.75S
6HR MIN TEMP:  64; 6HR MAX TEMP:  78;

SIOUX FALLS    CLOUDY    64  62  93 S8        29.78S
6HR MIN TEMP:  64; 6HR MAX TEMP:  73;

WINNER         FAIR      62  46  55 N3        29.75F
YANKTON        CLEAR     64  61  88 CALM      29.76F
$$

MNZ071-072-080-081-089-090-097-098-240700-
SOUTHWEST MINNESOTA

CITY           SKY/WX    TMP DP  RH WIND       PRES   REMARKS
FAIRMONT       CLOUDY    64  61  88 S14       29.81S
JACKSON        CLOUDY    64  61  88 S12       29.81F
LUVERNE        CLOUDY    61  59  94 S3        29.80R FOG
MARSHALL       CLOUDY    65  61  87 SW12      29.78R
6HR MIN TEMP:  64; 6HR MAX TEMP:  74;

MONTEVIDEO     PTCLDY    63  59  88 W6        29.77S
PIPESTONE      CLOUDY    63  61  94 SW5       29.79S FOG
REDWOOD FALLS  CLOUDY    63  60  90 S8        29.77R
TRACY          CLOUDY    64  63  94 SW12      29.78R
WINDOM         PTCLDY    64  61  88 CALM      29.80S
WORTHINGTON    CLOUDY    63  61  93 S10       29.80F
$$

IAZ001>003-012>014-020>022-031-032-NEZ013-014-SDZ071-240700-
NORTHWEST IOWA

CITY           SKY/WX    TMP DP  RH WIND       PRES   REMARKS
CHEROKEE       CLOUDY    64  64  97 S10       29.79F
DENISON        CLOUDY    64  63  94 S12G17    29.86R FOG
ESTHERVILLE    CLOUDY    63  61  93 S13       29.80F
LE MARS        CLOUDY    66  63  88 S10       29.80S
ORANGE CITY    CLOUDY    64  63  94 S6        29.80S
SHELDON        CLOUDY    63  63 100 S7        29.79F
SIOUX CITY       N/A    N/A N/A N/A MISG      29.81R
SPENCER        MOCLDY    64  61  90 S5        29.81S
6HR MIN TEMP:  64; 6HR MAX TEMP:  68; 6HR PCP:  0.33;

STORM LAKE     CLOUDY    64  61  88 S23G32    29.81F
$$

ABBREVIATIONS USED IN REMARKS
   TC - TEMPERATURE IN CELSIUS
  WCI - WIND CHILL INDEX
   HX - HEAT INDEX
  VSB - VISIBILITY





USA.gov is the U.S. government's official web portal to all federal, state and local government web resources and services.